Location: Widewater Village at Stafford
(38.4893°N, 77.3783°W)
Time: 06:39:32
(UTC+00:00)

Hubble Space Telescope - Visible Passes

Search period start: 09 December 2022 00:00
Search period end: 19 December 2022 00:00
Orbit: 530 x 534 km, 28.5° (Epoch: 08 December)

Date Brightness Start Highest point End Pass type
(mag) Time Alt. Az. Time Alt. Az. Time Alt. Az.
09 Dec 3.6 09:37:48 12° SSE 09:37:48 12° SSE 09:38:52 10° SE visible
09 Dec 3.0 11:14:46 10° SW 11:17:43 19° S 11:20:41 10° SE visible
10 Dec 3.7 09:26:06 11° SE 09:26:06 11° SE 09:26:36 10° SE visible
10 Dec 2.9 11:01:58 10° SW 11:04:58 20° S 11:07:58 10° SE visible
11 Dec 2.8 10:49:31 11° SW 10:52:12 20° S 10:55:13 10° SE visible
12 Dec 2.8 10:37:40 15° SW 10:39:26 20° S 10:42:25 10° SE visible
13 Dec 2.7 10:25:46 18° SSW 10:26:39 19° S 10:29:36 10° SE visible
14 Dec 2.8 10:13:50 18° S 10:13:52 18° S 10:16:43 10° SE visible
15 Dec 3.0 10:01:54 16° S 10:01:54 16° S 10:03:47 10° SSE visible
16 Dec 3.4 09:49:57 13° SSE 09:49:57 13° SSE 09:50:48 10° SSE visible
